Waarnemingen

Advertentie
Mijn weer
Görlitz, Duitsland (10499): temperatuur & dauwpunt: 15.01.2017 01:00:00 - 21.01.2017 01:00:00 (CET)Görlitz, Duitsland (10499): temperatuur 5cm & temperatuur -5cm: 15.01.2017 01:00:00 - 21.01.2017 01:00:00 (CET)Görlitz, Duitsland (10499): temperatuur -20cm & temperatuur -100cm: 15.01.2017 01:00:00 - 21.01.2017 01:00:00 (CET)Görlitz, Duitsland (10499): windsnelheid & windstoten: 15.01.2017 01:00:00 - 21.01.2017 01:00:00 (CET)Görlitz, Duitsland (10499): windrichting: 15.01.2017 01:00:00 - 21.01.2017 01:00:00 (CET)Görlitz, Duitsland (10499): luchtdruk: 15.01.2017 01:00:00 - 21.01.2017 01:00:00 (CET)Görlitz, Duitsland (10499): zicht: 15.01.2017 01:00:00 - 21.01.2017 01:00:00 (CET)Görlitz, Duitsland (10499): Zonneschijnduur: 15.01.2017 01:00:00 - 21.01.2017 01:00:00 (CET)Görlitz, Duitsland (10499): neerslag: 15.01.2017 01:00:00 - 21.01.2017 01:00:00 (CET)
Datum & Tijd tt [°C] td [°C] tt 5cm [°C] tt -5cm [°C] tt -20cm [°C] tt -100cm [°C] ff [km/u] ff [kn] fx [km/u] fx [kn] dd ppp [hPa] vv [km] sd [min] rr [mm]
21.01.2017 01:00:00 -4,2 -6,6 -10,1 0,3 0,9 3,6 8 4 9 5 WZW 1035,0 12 0 0,0
21.01.2017 00:00:00 -3,6 -5,7 -9,2 0,3 0,9 3,6 7 4 9 5 ZW 1035,2 12 0 0,0
20.01.2017 23:00:00 -2,6 -5,3 -8,8 0,4 1,0 3,6 5 3 9 5 ZW 1035,5 12 0 0,0
20.01.2017 22:00:00 -1,8 -5,2 -5,2 0,3 0,9 3,6 5 3 10 5 WZW 1035,4 12 0 0,0
20.01.2017 21:00:00 -1,4 -4,8 -5,5 0,3 0,9 3,6 6 3 8 5 ZW 1035,5 12 0 0,0
20.01.2017 20:00:00 -1,0 -4,4 -3,3 0,3 0,9 3,6 5 3 7 4 ZZW 1035,4 13 0 0,0
20.01.2017 19:00:00 -0,6 -3,9 -2,2 0,3 0,9 3,6 3 2 7 4 ZW 1035,5 13 0 0,0
20.01.2017 18:00:00 -0,2 -3,5 -0,9 0,3 0,9 3,6 4 2 8 5 Z 1035,4 13 0 0,0
20.01.2017 17:00:00 0,1 -3,2 -0,4 0,3 0,9 3,6 2 1 8 4 NW 1035,5 17 0 0,0
20.01.2017 16:00:00 0,2 -3,3 0,2 0,3 0,9 3,6 6 3 8 5 ZZW 1035,5 18 0 0,0
20.01.2017 15:00:00 0,2 -4,1 0,8 0,3 0,9 3,6 6 3 10 6 ZW 1035,6 22 0 0,0
20.01.2017 14:00:00 -0,2 -4,3 0,9 0,3 0,9 3,6 9 5 13 7 ZW 1035,7 24 0 0,0
20.01.2017 13:00:00 -0,6 -4,9 0,4 0,3 0,9 3,6 12 6 14 8 ZW 1036,3 27 0 0,0
20.01.2017 12:00:00 -1,0 -5,5 0,3 0,3 0,9 3,6 8 4 12 7 ZW 1037,0 30 0 0,0
20.01.2017 11:00:00 -1,7 -5,9 -0,9 0,3 0,9 3,6 12 7 16 9 ZW 1037,4 35 0 0,0
20.01.2017 10:00:00 -2,0 -6,5 -1,2 0,4 1,0 3,7 9 5 11 6 ZW 1037,4 45 0 0,0
20.01.2017 09:00:00 -3,0 -5,8 -2,5 0,4 1,0 3,7 5 3 6 4 Z 1037,4 45 0 0,0
20.01.2017 08:00:00 -3,7 -5,5 -3,2 0,4 1,0 3,8 3 2 9 5 Z 1037,2 40 0 0,0
20.01.2017 07:00:00 -4,0 -5,7 -3,9 0,3 1,0 3,7 6 4 9 5 Z 1037,3 30 0 0,0
20.01.2017 06:00:00 -4,4 -6,1 -4,6 0,3 0,9 3,6 6 3 7 4 Z 1037,5 30 0 0,0
20.01.2017 05:00:00 -5,0 -6,8 -5,8 0,3 0,9 3,6 5 3 8 5 Z 1037,7 23 0 0,0
20.01.2017 04:00:00 -4,8 -7,0 -5,3 0,3 0,9 3,6 8 5 11 6 WZW 1037,6 15 0 0,0
20.01.2017 03:00:00 -5,3 -6,9 -5,7 0,3 0,9 3,6 4 2 8 4 ZZW 1037,9 15 0 0,0
20.01.2017 02:00:00 -5,3 -6,5 -4,9 0,3 0,9 3,6 4 2 13 7 Z 1038,1 15 0 0,0
20.01.2017 01:00:00 -6,2 -7,3 -5,8 0,3 0,9 3,6 6 3 10 6 ZZO 1038,7 8 0 0,0
20.01.2017 00:00:00 -6,6 -7,6 -6,1 0,3 0,9 3,6 3 2 9 5 Z 1038,9 11 0 0,0
19.01.2017 23:00:00 -7,2 -8,3 -6,7 0,3 0,9 3,6 8 5 12 7 ZZW 1039,3 8 0 0,0
19.01.2017 22:00:00 -8,7 -9,9 -7,9 0,3 0,9 3,6 3 2 13 7 NNO 1039,7 5 0 0,0
19.01.2017 21:00:00 -9,6 -10,8 -9,0 0,3 0,9 3,6 7 4 11 6 Z 1039,7 4,5 0 0,0
19.01.2017 20:00:00 -12,4 -13,7 -12,6 0,3 0,9 3,6 6 3 9 5 N 1040,4 4,0 0 0,0
19.01.2017 19:00:00 -11,1 -12,2 -17,0 0,3 0,9 3,6 3 2 6 4 ZZW 1039,7 4,5 0 0,0
19.01.2017 18:00:00 -10,2 -11,2 -15,8 0,3 0,9 3,6 5 3 9 5 WZW 1039,5 6 0 0,0
19.01.2017 17:00:00 -10,7 -11,9 -14,1 0,3 0,9 3,6 2 1 4 2 ZW 1039,7 5 14 0,0
19.01.2017 16:00:00 -8,3 -10,3 -9,1 0,3 0,9 3,6 2 1 8 4 N 1039,9 5 60 0,0
19.01.2017 15:00:00 -7,5 -9,8 -5,6 0,3 1,0 3,6 4 2 7 4 NNW 1040,0 4,5 60 0,0
19.01.2017 14:00:00 -8,1 -10,2 -3,7 0,3 1,0 3,6 4 2 5 3 WZW 1040,2 3,5 60 0,0
19.01.2017 13:00:00 -8,6 -10,3 -4,2 0,3 1,0 3,7 2 1 6 3 Z 1040,5 2,3 49 0,0
19.01.2017 12:00:00 -9,7 -10,5 -7,6 0,3 1,0 3,7 3 2 5 3 NO 1041,3 1,5 1 0,0
19.01.2017 11:00:00 -10,0 -10,8 -8,2 0,3 0,9 3,6 3 1 6 4 WZW 1041,4 0,6 0 0,0
19.01.2017 10:00:00 -10,5 -11,3 -9,6 0,3 0,9 3,6 4 2 9 5 Z 1041,4 0,1 0 0,0
19.01.2017 09:00:00 -11,2 -12,0 -10,9 0,3 0,9 3,6 6 3 11 6 ZZO 1041,4 0,2 0 0,0
19.01.2017 08:00:00 -11,0 -11,8 -10,7 0,3 1,0 3,7 8 5 12 7 ZO 1041,2 0,3 0 0,0
19.01.2017 07:00:00 -11,0 -11,6 -10,6 0,3 1,0 3,7 4 2 7 4 WZW 1041,0 0,1 0 0,0
19.01.2017 06:00:00 -11,1 -11,8 -10,8 0,3 1,0 3,7 4 2 7 4 NNW 1041,1 0,4 0 0,0
19.01.2017 05:00:00 -11,1 -11,6 -11,2 0,3 0,9 3,6 2 1 6 4 ZZW 1041,3 0,3 0 0,0
19.01.2017 04:00:00 -13,0 -14,0 -14,3 0,3 0,9 3,6 3 2 6 3 ZZO 1041,9 2,0 0 0,0
19.01.2017 03:00:00 -12,1 -12,8 -20,7 0,3 0,9 3,6 4 2 5 3 Z 1041,7 2,5 0 0,0
19.01.2017 02:00:00 -10,7 -11,3 -17,7 0,3 0,9 3,6 3 2 8 4 ZZW 1041,7 3,0 0 0,0
19.01.2017 01:00:00 -8,8 -9,7 -12,2 0,3 0,9 3,6 7 4 12 6 O 1041,1 4,0 0 0,0
19.01.2017 00:00:00 -9,4 -10,0 -15,0 0,3 0,9 3,7 5 3 10 5 ONO 1041,6 3,8 0 0,0
18.01.2017 23:00:00 -8,6 -9,3 -10,8 0,3 0,9 3,6 8 4 16 8 NO 1042,0 4,5 0 0,0
18.01.2017 22:00:00 -7,6 -8,5 -9,6 0,3 0,9 3,6 11 6 20 11 ONO 1041,9 4,0 0 0,0
18.01.2017 21:00:00 -6,9 -8,0 -8,2 0,3 0,9 3,6 9 5 16 9 O 1041,9 5 0 0,0
18.01.2017 20:00:00 -6,5 -7,9 -7,5 0,3 0,9 3,6 10 5 17 9 O 1041,9 5 0 0,0
18.01.2017 19:00:00 -6,4 -7,7 -7,5 0,3 0,9 3,6 9 5 17 9 ONO 1041,8 6 0 0,0
18.01.2017 18:00:00 -6,5 -7,6 -6,8 0,3 0,9 3,6 12 7 18 10 NO 1042,2 6 0 0,0
18.01.2017 17:00:00 -7,1 -8,3 -8,2 0,3 0,9 3,6 10 6 13 7 NO 1042,2 6 0 0,0
18.01.2017 16:00:00 -6,5 -7,4 -6,4 0,3 0,9 3,6 6 3 11 6 NNO 1042,3 6 0 0,0
18.01.2017 15:00:00 -6,6 -7,4 -6,2 0,3 0,9 3,6 8 4 14 8 O 1042,4 3,0 0 0,0
18.01.2017 14:00:00 -6,5 -7,7 -5,9 0,3 0,9 3,6 8 4 13 7 NNO 1042,2 2,5 0 0,0
18.01.2017 13:00:00 -6,2 -6,9 -5,4 0,3 0,9 3,6 2 1 9 5 NO 1042,1 1,4 0 0,0
18.01.2017 12:00:00 -6,6 -7,5 -4,9 0,3 0,9 3,6 3 2 11 6 N 1042,6 0,7 0 0,0
18.01.2017 11:00:00 -6,5 -7,1 -5,8 0,3 0,9 3,6 5 3 9 5 ONO 1042,6 1,3 0 0,0
18.01.2017 10:00:00 -6,6 -7,4 -6,2 0,3 0,9 3,6 5 3 10 5 NO 1042,2 1,7 0 0,0
18.01.2017 09:00:00 -6,4 -6,9 -6,3 0,2 0,9 3,6 5 3 12 6 NNO 1042,3 3,0 0 0,0
18.01.2017 08:00:00 -6,4 -6,9 -6,4 0,2 0,9 3,6 4 2 11 6 ONO 1041,8 4,3 0 0,0
18.01.2017 07:00:00 -6,2 -6,7 -6,2 0,2 0,9 3,6 4 2 12 6 NNO 1041,1 4,5 0 0,0
18.01.2017 06:00:00 -6,1 -6,6 -6,1 0,2 0,9 3,6 5 3 14 7 ONO 1040,9 5 0 0,0
18.01.2017 05:00:00 -6,1 -6,7 -6,0 0,2 0,9 3,6 7 4 14 8 NO 1040,6 4,5 0 0,0
18.01.2017 04:00:00 -5,8 -6,6 -5,8 0,2 0,9 3,6 4 2 13 7 ONO 1040,7 4,0 0 0,0
18.01.2017 03:00:00 -5,5 -6,2 -5,6 0,2 0,9 3,7 7 4 15 8 N 1040,8 3,5 0 0,0
18.01.2017 02:00:00 -5,6 -6,1 -5,6 0,2 0,9 3,6 10 5 16 9 N 1040,7 3,5 0 0,0
18.01.2017 01:00:00 -5,5 -6,0 -5,5 0,2 0,9 3,7 11 6 15 8 NNO 1040,3 3,0 0 0,0
18.01.2017 00:00:00 -5,3 -5,9 -5,4 0,2 0,9 3,7 9 5 14 8 NO 1040,1 4,0 0 0,0
17.01.2017 23:00:00 -4,8 -5,3 -4,9 0,2 0,9 3,7 7 4 16 9 ONO 1039,9 4,5 0 0,0
17.01.2017 22:00:00 -4,5 -4,9 -4,6 0,2 0,9 3,7 9 5 18 10 NO 1039,9 3,5 0 0,0
17.01.2017 21:00:00 -4,2 -4,7 -4,2 0,2 0,9 3,7 13 7 23 13 NNO 1039,7 3,0 0 0,0
17.01.2017 20:00:00 -3,7 -4,3 -3,8 0,2 0,9 3,7 12 7 22 12 NNO 1039,1 4,0 0 0,0
17.01.2017 19:00:00 -3,1 -4,1 -3,2 0,2 0,9 3,6 14 8 21 11 NNO 1038,5 5 0 0,0
17.01.2017 18:00:00 -3,1 -4,1 -3,5 0,2 0,9 3,6 13 7 16 9 NNO 1037,9 8 0 0,0
17.01.2017 17:00:00 -3,1 -4,4 -3,8 0,2 0,9 3,6 13 7 15 8 NNO 1037,2 12 0 0,0
17.01.2017 16:00:00 -3,4 -5,1 -4,7 0,2 0,9 3,6 12 6 18 10 NNO 1036,8 12 0 0,0
17.01.2017 15:00:00 -1,9 -4,0 -2,0 0,2 0,9 3,6 12 6 21 11 NO 1036,3 14 0 0,0
17.01.2017 14:00:00 -1,9 -3,9 -2,0 0,2 0,9 3,6 14 8 18 10 NNO 1035,9 14 0 0,0
17.01.2017 13:00:00 -2,2 -3,6 -1,3 0,2 0,9 3,6 11 6 13 7 N 1035,8 10 0 0,1
17.01.2017 12:00:00 -2,0 -3,2 -1,7 0,2 0,8 3,6 9 5 12 6 NNO 1035,6 4,3 0 0,0
17.01.2017 11:00:00 -2,0 -3,3 -1,8 0,2 0,8 3,6 9 5 11 6 NNO 1035,6 6 0 0,0
17.01.2017 10:00:00 -2,5 -3,3 -2,4 0,2 0,9 3,7 9 5 15 8 NNO 1035,2 4,3 0 0,0
17.01.2017 09:00:00 -2,9 -3,6 -3,0 0,2 0,9 3,7 11 6 14 8 NNO 1034,7 4,3 0 0,0
17.01.2017 08:00:00 -3,2 -3,7 -3,3 0,2 0,9 3,7 9 5 12 7 NNW 1033,7 4,3 0 0,0
17.01.2017 07:00:00 -3,2 -3,8 -3,2 0,2 0,9 3,7 9 5 13 7 N 1033,1 3,0 0 0,1
17.01.2017 06:00:00 -3,2 -3,7 -3,2 0,2 0,9 3,7 7 4 13 7 NNW 1032,7 3,0 0 0,0
17.01.2017 05:00:00 -3,5 -3,9 -3,5 0,2 0,9 3,7 5 3 9 5 W 1032,2 3,0 0 0,0
17.01.2017 04:00:00 -3,8 -4,4 -3,9 0,2 0,9 3,7 5 3 10 5 WZW 1031,8 3,0 0 0,1
17.01.2017 03:00:00 -3,7 -4,4 -3,9 0,2 0,9 3,7 5 3 12 6 W 1031,5 6 0 0,0
17.01.2017 02:00:00 -3,9 -4,4 -4,3 0,2 0,9 3,7 6 4 10 5 WNW 1031,1 7 0 0,0
17.01.2017 01:00:00 -3,8 -4,4 -3,9 0,2 0,8 3,7 5 3 10 6 WNW 1030,8 8 0 0,0
17.01.2017 00:00:00 -3,6 -4,3 -3,7 0,2 0,8 3,7 5 3 11 6 WNW 1030,4 8 0 0,0
16.01.2017 23:00:00 -3,6 -4,3 -3,6 0,2 0,8 3,7 7 4 16 8 WNW 1030,1 9 0 0,0
16.01.2017 22:00:00 -3,4 -4,1 -3,4 0,2 0,8 3,7 7 4 16 9 NW 1029,6 11 0 0,0
16.01.2017 21:00:00 -3,2 -4,1 -3,3 0,2 0,8 3,7 9 5 21 11 NW 1028,9 9 0 0,0
16.01.2017 20:00:00 -2,9 -3,6 -3,1 0,2 0,8 3,7 9 5 19 10 NW 1028,3 11 0 0,0
16.01.2017 19:00:00 -3,3 -4,1 -3,9 0,2 0,8 3,7 8 4 14 7 WNW 1027,5 11 0 0,0
16.01.2017 18:00:00 -3,0 -3,8 -3,6 0,2 0,8 3,7 10 5 16 9 NW 1026,7 10 0 0,0
16.01.2017 17:00:00 -2,8 -4,0 -3,1 0,2 0,8 3,6 9 5 22 12 NNW 1026,3 19 0 0,0
16.01.2017 16:00:00 -2,4 -3,6 -2,4 0,2 0,8 3,6 13 7 18 10 NNW 1025,6 20 0 0,0
16.01.2017 15:00:00 -3,1 -5,0 -3,8 0,2 0,8 3,6 16 9 20 11 N 1024,8 27 0 0,0
16.01.2017 14:00:00 -0,9 -3,4 -0,4 0,2 0,8 3,6 16 9 26 14 N 1024,1 20 0 0,0
16.01.2017 13:00:00 -1,2 -3,2 -1,1 0,2 0,8 3,6 18 10 24 13 N 1023,9 20 0 0,0
16.01.2017 12:00:00 -0,9 -2,4 -0,6 0,2 0,8 3,6 16 9 25 14 N 1023,6 12 0 0,0
16.01.2017 11:00:00 -1,2 -2,1 -1,1 0,2 0,8 3,6 16 9 23 13 N 1023,4 3,5 0 0,1
16.01.2017 10:00:00 -1,6 -2,2 -1,5 0,2 0,8 3,6 9 5 16 9 NW 1022,9 4,3 0 0,3
16.01.2017 09:00:00 -1,8 -2,2 -1,8 0,2 0,8 3,6 8 4 14 8 NW 1022,3 2,2 0 0,1
16.01.2017 08:00:00 -1,9 -2,4 -1,9 0,2 0,8 3,6 9 5 16 9 NNW 1021,8 4,3 0 0,1
16.01.2017 07:00:00 -1,8 -2,3 -1,9 0,2 0,8 3,6 9 5 20 11 NW 1021,0 3,5 0 0,4
16.01.2017 06:00:00 -1,6 -2,0 -1,6 0,2 0,8 3,7 9 5 16 8 NNW 1020,4 5 0 0,1
16.01.2017 05:00:00 -1,7 -1,9 -1,8 0,2 0,8 3,7 8 4 12 6 W 1020,0 1,3 0 0,8
16.01.2017 04:00:00 -1,5 -1,9 -1,6 0,2 0,8 3,7 10 5 16 9 WNW 1019,9 4,5 0 0,0
16.01.2017 03:00:00 -1,4 -1,6 -1,5 0,2 0,8 3,7 8 4 16 9 WNW 1019,7 4,5 0 0,0
16.01.2017 02:00:00 -1,4 -1,6 -1,4 0,2 0,8 3,7 7 4 14 8 WNW 1019,4 4,0 0 0,0
16.01.2017 01:00:00 -1,3 -1,5 -1,4 0,2 0,8 3,7 9 5 17 9 NW 1019,3 6 0 0,0
16.01.2017 00:00:00 -1,3 -1,6 -1,4 0,2 0,8 3,7 10 5 16 9 WNW 1019,0 5 0 0,5
15.01.2017 23:00:00 -1,5 -1,5 -1,6 0,2 0,8 3,7 10 6 19 10 WNW 1018,6 1,5 0 1,1
15.01.2017 22:00:00 -1,5 -1,8 -1,5 0,2 0,8 3,7 12 6 22 12 W 1018,2 1,0 0 0,4
15.01.2017 21:00:00 -1,3 -1,9 -1,5 0,2 0,8 3,7 13 7 25 14 W 1017,8 2,0 0 0,2
15.01.2017 20:00:00 -1,1 -1,9 -1,4 0,2 0,8 3,7 15 8 26 14 W 1017,5 3,5 0 0,1
15.01.2017 19:00:00 -1,0 -2,1 -1,2 0,2 0,8 3,7 15 8 34 19 W 1017,1 5 0 0,0
15.01.2017 18:00:00 -1,0 -2,0 -1,2 0,2 0,8 3,7 16 9 30 16 W 1016,8 3,9 0 0,0
15.01.2017 17:00:00 -0,8 -2,1 -1,1 0,2 0,8 3,7 18 10 33 18 W 1016,4 8 0 0,0
15.01.2017 16:00:00 -0,8 -2,0 -1,0 0,2 0,8 3,7 18 10 29 16 W 1016,0 1,0 0 0,0
15.01.2017 15:00:00 -0,6 -2,1 -0,5 0,2 0,8 3,7 17 9 29 15 W 1015,6 10 0 0,0
15.01.2017 14:00:00 -0,6 -2,1 -0,4 0,2 0,8 3,7 19 11 31 17 W 1015,1 2,0 0 0,0
15.01.2017 13:00:00 -0,7 -2,0 0,0 0,2 0,8 3,7 16 9 31 17 W 1014,8 1,5 0 0,1
15.01.2017 12:00:00 -0,9 -1,9 -0,4 0,2 0,8 3,7 18 10 29 16 WZW 1014,8 1,0 0 0,3
15.01.2017 11:00:00 -0,6 -2,7 -0,6 0,2 0,8 3,7 17 9 31 17 WZW 1014,4 2,0 0 0,0
15.01.2017 10:00:00 -0,2 -3,3 -0,5 0,2 0,8 3,7 18 10 33 18 WZW 1014,0 15 0 0,0
15.01.2017 09:00:00 -0,4 -3,4 -0,8 0,2 0,8 3,7 18 10 30 16 WZW 1013,6 30 0 0,0
15.01.2017 08:00:00 -0,9 -3,8 -2,6 0,2 0,8 3,7 15 8 40 22 WZW 1013,0 23 0 0,0
15.01.2017 07:00:00 -0,3 -2,9 -0,9 0,2 0,8 3,8 20 11 31 17 W 1012,1 25 0 0,0
15.01.2017 06:00:00 -0,4 -3,0 -0,9 0,1 0,8 3,7 18 10 36 20 W 1011,8 35 0 0,0
15.01.2017 05:00:00 -0,5 -2,9 -1,3 0,1 0,8 3,7 21 12 34 19 W 1011,4 35 0 0,0
15.01.2017 04:00:00 -0,4 -2,2 -1,0 0,1 0,8 3,7 19 11 31 17 W 1011,0 22 0 0,0
15.01.2017 03:00:00 -0,6 -2,2 -1,1 0,1 0,8 3,7 17 9 29 16 W 1010,5 15 0 0,0
15.01.2017 02:00:00 -0,3 -2,4 -1,1 0,1 0,8 3,7 16 9 32 18 W 1010,3 35 0 0,0
15.01.2017 01:00:00 -0,1 -2,3 -0,7 0,1 0,8 3,8 19 10 35 19 W 1010,1 15 0 0,0

tt = temperatuur
td = dauwpunt
tt 5cm = temperatuur 5cm
tt -5cm = temperatuur -5cm
tt -20cm = temperatuur -20cm
tt -100cm = temperatuur -100cm
ff = windsnelheid
fx = windstoten
dd = windrichting
ppp = luchtdruk
vv = zicht
sd = Zonneschijnduur
rr = neerslag

Weerstations in de omgeving